QPF
0.00 0.01 0.02 0.02 0.06 0.08 0.06 0.04 0.02 0.01 0.01 0.01 0.01 0.01 0.04 0.08 0.08 0.11 0.13 0.09 0.07 0.07 0.07 0.05 0.05 0.05 0.03 0.02 0.02 0.03 0.03 0.03 0.02 0.02 0.02 0.02 0.03 0.04 0.05 0.04 0.05 0.07 0.10 0.12 0.12 0.10 0.08 0.08 0.07
0.01 0.01 0.02 0.05 0.09 0.10 0.08 0.05 0.02 0.01 0.01 0.01 0.01 0.01 0.03 0.07 0.11 0.15 0.15 0.11 0.09 0.08 0.05 0.04 0.04 0.04 0.02 0.01 0.01 0.02 0.03 0.03 0.02 0.02 0.02 0.03 0.06 0.11 0.17 0.16 0.14 0.14 0.15 0.14 0.11 0.07 0.06 0.04 0.05
0.02 0.02 0.03 0.07 0.07 0.08 0.08 0.04 0.02 0.01 0.00 0.00 0.00 0.01 0.05 0.12 0.13 0.14 0.13 0.10 0.09 0.07 0.05 0.05 0.04 0.02 0.02 0.02 0.02 0.02 0.02 0.03 0.03 0.03 0.02 0.03 0.05 0.11 0.21 0.24 0.21 0.16 0.10 0.07 0.05 0.04 0.03 0.03 0.04
0.01 0.02 0.02 0.06 0.05 0.07 0.05 0.05 0.02 0.01 0.00 0.00 0.01 0.04 0.06 0.08 0.07 0.10 0.13 0.11 0.09 0.08 0.06 0.04 0.03 0.02 0.02 0.02 0.01 0.02 0.03 0.03 0.04 0.03 0.02 0.03 0.03 0.03 0.06 0.10 0.11 0.07 0.05 0.03 0.02 0.02 0.02 0.02 0.03
0.00 0.01 0.04 0.08 0.08 0.05 0.04 0.05 0.02 0.01 0.02 0.02 0.01 0.04 0.07 0.07 0.05 0.08 0.12 0.11 0.09 0.08 0.06 0.04 0.03 0.02 0.02 0.01 0.01 0.02 0.03 0.03 0.03 0.03 0.04 0.04 0.03 0.02 0.03 0.04 0.04 0.03 0.02 0.01 0.01 0.01 0.01 0.01 0.01
0.00 0.02 0.05 0.08 0.07 0.04 0.03 0.03 0.02 0.02 0.04 0.03 0.01 0.02 0.08 0.07 0.06 0.08 0.09 0.07 0.06 0.04 0.04 0.03 0.03 0.02 0.02 0.02 0.01 0.02 0.04 0.05 0.05 0.05 0.06 0.05 0.05 0.02 0.02 0.02 0.02 0.02 0.02 0.02 0.01 0.01 0.01 0.01 0.01
0.00 0.01 0.05 0.09 0.07 0.05 0.02 0.02 0.02 0.02 0.03 0.03 0.02 0.02 0.07 0.08 0.07 0.06 0.07 0.06 0.05 0.03 0.02 0.01 0.01 0.01 0.01 0.01 0.01 0.02 0.04 0.05 0.06 0.05 0.05 0.04 0.03 0.03 0.01 0.01 0.01 0.01 0.01 0.02 0.02 0.01 0.01 0.01 0.02
0.01 0.01 0.04 0.07 0.06 0.05 0.02 0.01 0.01 0.01 0.03 0.01 0.02 0.02 0.04 0.07 0.07 0.06 0.06 0.06 0.04 0.03 0.02 0.01 0.01 0.00 0.00 0.01 0.02 0.03 0.05 0.05 0.05 0.05 0.05 0.04 0.02 0.02 0.02 0.01 0.01 0.01 0.01 0.01 0.01 0.02 0.02 0.02 0.03
0.01 0.01 0.03 0.07 0.07 0.03 0.02 0.01 0.01 0.01 0.02 0.01 0.02 0.02 0.02 0.04 0.05 0.06 0.05 0.05 0.04 0.03 0.02 0.01 0.00 0.00 0.00 0.00 0.01 0.03 0.04 0.04 0.04 0.04 0.05 0.03 0.01 0.01 0.01 0.01 0.01 0.01 0.02 0.02 0.03 0.03 0.03 0.03 0.04
0.01 0.01 0.03 0.05 0.05 0.02 0.01 0.01 0.01 0.01 0.01 0.01 0.03 0.06 0.02 0.03 0.04 0.04 0.04 0.03 0.02 0.03 0.03 0.03 0.02 0.01 0.00 0.00 0.01 0.02 0.03 0.03 0.04 0.03 0.02 0.02 0.01 0.01 0.01 0.02 0.02 0.02 0.02 0.02 0.03 0.03 0.03 0.04 0.05
0.01 0.02 0.04 0.05 0.02 0.02 0.02 0.01 0.01 0.02 0.02 0.01 0.04 0.09 0.03 0.02 0.02 0.03 0.03 0.02 0.02 0.03 0.04 0.05 0.03 0.02 0.01 0.01 0.01 0.02 0.04 0.04 0.04 0.04 0.02 0.02 0.02 0.02 0.02 0.02 0.02 0.03 0.03 0.03 0.03 0.03 0.03 0.06 0.06
0.00 0.01 0.03 0.04 0.02 0.01 0.03 0.02 0.01 0.00 0.01 0.01 0.01 0.01 0.02 0.01 0.01 0.03 0.03 0.02 0.01 0.02 0.04 0.04 0.02 0.01 0.01 0.01 0.03 0.04 0.04 0.02 0.02 0.03 0.03 0.03 0.03 0.05 0.04 0.02 0.02 0.02 0.01 0.02 0.02 0.03 0.03 0.04 0.07
0.00 0.01 0.02 0.01 0.01 0.01 0.03 0.03 0.01 0.01 0.00 0.01 0.01 0.00 0.01 0.01 0.02 0.03 0.04 0.03 0.01 0.01 0.02 0.01 0.01 0.01 0.01 0.01 0.02 0.02 0.03 0.02 0.01 0.04 0.04 0.03 0.02 0.02 0.02 0.02 0.03 0.03 0.02 0.01 0.03 0.04 0.04 0.05 0.05
0.00 0.00 0.01 0.01 0.01 0.01 0.01 0.01 0.01 0.02 0.01 0.01 0.01 0.01 0.01 0.01 0.03 0.02 0.02 0.02 0.01 0.01 0.01 0.01 0.01 0.01 0.01 0.01 0.01 0.01 0.01 0.02 0.01 0.02 0.02 0.03 0.02 0.01 0.01 0.01 0.02 0.03 0.03 0.02 0.02 0.03 0.04 0.05 0.05
0.00 0.00 0.01 0.01 0.01 0.00 0.00 0.03 0.03 0.03 0.03 0.02 0.01 0.01 0.01 0.01 0.01 0.01 0.02 0.02 0.01 0.01 0.00 0.00 0.00 0.00 0.01 0.01 0.01 0.00 0.01 0.02 0.02 0.02 0.03 0.03 0.02 0.01 0.01 0.01 0.01 0.02 0.02 0.03 0.03 0.03 0.04 0.04 0.05
0.00 0.00 0.01 0.01 0.01 0.01 0.01 0.04 0.04 0.03 0.02 0.02 0.01 0.01 0.00 0.01 0.01 0.01 0.01 0.01 0.01 0.01 0.00 0.00 0.00 0.00 0.00 0.00 0.00 0.00 0.01 0.02 0.02 0.03 0.04 0.04 0.04 0.03 0.02 0.02 0.01 0.01 0.02 0.04 0.04 0.04 0.04 0.04 0.03
0.01 0.01 0.01 0.02 0.01 0.01 0.02 0.03 0.02 0.02 0.02 0.02 0.01 0.01 0.01 0.01 0.01 0.01 0.01 0.01 0.01 0.01 0.01 0.01 0.00 0.00 0.00 0.00 0.01 0.01 0.01 0.01 0.02 0.05 0.08 0.11 0.10 0.06 0.05 0.04 0.04 0.02 0.04 0.05 0.04 0.05 0.05 0.05 0.02
0.01 0.01 0.01 0.01 0.01 0.01 0.01 0.01 0.02 0.02 0.02 0.01 0.02 0.01 0.01 0.01 0.01 0.01 0.01 0.01 0.01 0.01 0.01 0.01 0.00 0.00 0.00 0.01 0.02 0.02 0.01 0.01 0.02 0.06 0.11 0.17 0.14 0.08 0.07 0.06 0.04 0.04 0.04 0.05 0.05 0.05 0.03 0.03 0.04
0.01 0.01 0.02 0.01 0.01 0.01 0.01 0.01 0.01 0.03 0.03 0.03 0.04 0.04 0.03 0.03 0.02 0.02 0.02 0.02 0.02 0.02 0.02 0.02 0.02 0.01 0.01 0.01 0.02 0.01 0.02 0.02 0.02 0.04 0.07 0.11 0.12 0.08 0.07 0.04 0.02 0.02 0.02 0.04 0.06 0.06 0.04 0.03 0.04
0.01 0.02 0.03 0.02 0.01 0.01 0.01 0.01 0.01 0.03 0.05 0.04 0.04 0.04 0.02 0.04 0.06 0.04 0.03 0.02 0.02 0.02 0.02 0.02 0.02 0.02 0.02 0.02 0.02 0.02 0.03 0.03 0.03 0.03 0.05 0.06 0.04 0.04 0.04 0.03 0.02 0.02 0.02 0.03 0.06 0.09 0.08 0.05 0.05
0.01 0.02 0.03 0.02 0.01 0.01 0.01 0.03 0.03 0.04 0.06 0.04 0.03 0.04 0.05 0.06 0.09 0.06 0.05 0.04 0.03 0.03 0.02 0.01 0.01 0.02 0.02 0.03 0.03 0.03 0.03 0.04 0.06 0.05 0.04 0.05 0.04 0.05 0.04 0.04 0.04 0.04 0.04 0.04 0.03 0.04 0.05 0.05 0.06
0.00 0.00 0.01 0.02 0.02 0.01 0.01 0.03 0.04 0.05 0.07 0.06 0.05 0.05 0.05 0.08 0.11 0.13 0.08 0.06 0.06 0.05 0.07 0.04 0.03 0.03 0.02 0.03 0.05 0.06 0.04 0.03 0.02 0.03 0.03 0.04 0.05 0.06 0.05 0.06 0.06 0.05 0.05 0.03 0.03 0.03 0.03 0.04 0.05
0.00 0.00 0.01 0.01 0.01 0.02 0.02 0.02 0.03 0.03 0.04 0.04 0.04 0.05 0.05 0.08 0.14 0.28 0.16 0.08 0.08 0.07 0.06 0.06 0.05 0.05 0.03 0.02 0.03 0.04 0.04 0.04 0.04 0.04 0.04 0.05 0.05 0.05 0.05 0.06 0.05 0.07 0.08 0.06 0.06 0.06 0.06 0.05 0.06
0.00 0.00 0.00 0.01 0.01 0.02 0.02 0.02 0.01 0.02 0.03 0.04 0.06 0.05 0.05 0.08 0.08 0.17 0.21 0.08 0.06 0.06 0.06 0.08 0.09 0.06 0.04 0.04 0.04 0.04 0.05 0.06 0.07 0.07 0.08 0.07 0.06 0.06 0.05 0.04 0.07 0.11 0.11 0.12 0.14 0.10 0.08 0.07 0.06
0.00 0.00 0.00 0.00 0.01 0.01 0.01 0.02 0.02 0.02 0.02 0.04 0.05 0.04 0.05 0.10 0.14 0.08 0.09 0.07 0.06 0.07 0.07 0.07 0.07 0.06 0.07 0.08 0.06 0.05 0.07 0.07 0.07 0.08 0.08 0.06 0.05 0.06 0.06 0.05 0.06 0.06 0.07 0.07 0.08 0.08 0.08 0.07 0.06
0.00 0.00 0.00 0.00 0.01 0.01 0.01 0.01 0.02 0.02 0.02 0.03 0.04 0.05 0.05 0.05 0.07 0.04 0.04 0.04 0.05 0.06 0.06 0.07 0.08 0.09 0.08 0.06 0.04 0.05 0.07 0.07 0.08 0.08 0.08 0.07 0.05 0.05 0.06 0.06 0.06 0.05 0.04 0.05 0.07 0.08 0.08 0.08 0.08
0.00 0.00 0.00 0.00 0.00 0.00 0.01 0.02 0.05 0.03 0.04 0.04 0.06 0.05 0.05 0.04 0.04 0.04 0.04 0.04 0.03 0.02 0.03 0.05 0.06 0.06 0.06 0.06 0.06 0.06 0.06 0.06 0.06 0.05 0.06 0.05 0.05 0.05 0.07 0.08 0.05 0.04 0.04 0.05 0.07 0.08 0.08 0.09 0.09
0.00 0.00 0.00 0.00 0.00 0.01 0.01 0.03 0.08 0.09 0.09 0.09 0.11 0.12 0.06 0.06 0.08 0.07 0.07 0.05 0.03 0.02 0.02 0.03 0.03 0.04 0.05 0.06 0.05 0.05 0.05 0.05 0.05 0.04 0.05 0.05 0.07 0.07 0.08 0.06 0.04 0.03 0.04 0.05 0.08 0.09 0.09 0.09 0.08
0.00 0.00 0.00 0.00 0.00 0.01 0.02 0.03 0.06 0.13 0.15 0.12 0.08 0.09 0.16 0.14 0.12 0.12 0.08 0.08 0.05 0.03 0.02 0.02 0.04 0.05 0.08 0.08 0.07 0.05 0.05 0.05 0.07 0.07 0.07 0.08 0.07 0.08 0.08 0.06 0.04 0.04 0.04 0.06 0.09 0.07 0.08 0.10 0.10
0.00 0.00 0.00 0.00 0.00 0.00 0.02 0.04 0.07 0.11 0.11 0.07 0.05 0.05 0.11 0.16 0.10 0.08 0.09 0.08 0.06 0.04 0.03 0.03 0.05 0.06 0.08 0.09 0.07 0.05 0.05 0.04 0.05 0.06 0.06 0.07 0.07 0.07 0.07 0.07 0.05 0.04 0.06 0.08 0.08 0.07 0.06 0.07 0.06
MSLP
1005.16 1006.08 1007.37 1008.82 1010.24 1011.44 1012.27 1012.69 1012.74 1012.54 1012.26 1012.06 1012.08 1012.36 1012.88 1013.54 1014.21 1014.75 1015.07 1015.12 1014.93 1014.58 1014.17 1013.80 1013.55 1013.46 1013.49 1013.61 1013.76 1013.88 1013.95 1013.97 1013.96 1013.97 1014.03 1014.15 1014.34 1014.57 1014.80 1015.00 1015.13 1015.20 1015.23 1015.24 1015.26 1015.32 1015.42 1015.56 1015.72
1006.04 1007.27 1008.75 1010.27 1011.62 1012.64 1013.21 1013.32 1013.07 1012.60 1012.12 1011.79 1011.73 1011.97 1012.49 1013.18 1013.89 1014.47 1014.85 1014.97 1014.86 1014.60 1014.29 1014.00 1013.83 1013.78 1013.84 1013.97 1014.12 1014.24 1014.31 1014.34 1014.36 1014.40 1014.49 1014.63 1014.81 1015.02 1015.20 1015.34 1015.41 1015.44 1015.43 1015.42 1015.43 1015.49 1015.60 1015.75 1015.91
1007.08 1008.52 1010.09 1011.58 1012.78 1013.56 1013.84 1013.67 1013.17 1012.52 1011.91 1011.52 1011.45 1011.72 1012.26 1012.96 1013.67 1014.27 1014.66 1014.80 1014.75 1014.55 1014.31 1014.11 1014.01 1014.02 1014.12 1014.27 1014.42 1014.55 1014.63 1014.68 1014.72 1014.79 1014.89 1015.02 1015.19 1015.35 1015.49 1015.57 1015.60 1015.59 1015.57 1015.56 1015.59 1015.68 1015.81 1015.97 1016.13
1008.15 1009.70 1011.26 1012.61 1013.60 1014.11 1014.12 1013.72 1013.05 1012.30 1011.67 1011.32 1011.30 1011.62 1012.20 1012.91 1013.61 1014.17 1014.52 1014.66 1014.61 1014.46 1014.29 1014.17 1014.14 1014.21 1014.35 1014.53 1014.70 1014.83 1014.92 1014.97 1015.03 1015.10 1015.20 1015.33 1015.47 1015.60 1015.69 1015.73 1015.73 1015.71 1015.69 1015.71 1015.78 1015.90 1016.06 1016.24 1016.41
1009.15 1010.68 1012.12 1013.27 1014.00 1014.25 1014.04 1013.48 1012.73 1012.00 1011.46 1011.21 1011.31 1011.71 1012.33 1013.03 1013.68 1014.17 1014.46 1014.56 1014.51 1014.38 1014.27 1014.21 1014.26 1014.39 1014.57 1014.77 1014.94 1015.07 1015.15 1015.21 1015.26 1015.33 1015.43 1015.55 1015.67 1015.77 1015.83 1015.85 1015.84 1015.83 1015.84 1015.89 1016.00 1016.17 1016.36 1016.55 1016.71
1009.97 1011.38 1012.61 1013.51 1013.98 1014.00 1013.64 1013.02 1012.31 1011.69 1011.31 1011.23 1011.48 1011.98 1012.63 1013.31 1013.88 1014.29 1014.49 1014.53 1014.46 1014.35 1014.28 1014.30 1014.40 1014.58 1014.79 1014.99 1015.16 1015.27 1015.34 1015.39 1015.44 1015.50 1015.60 1015.71 1015.82 1015.90 1015.96 1015.97 1015.97 1015.98 1016.02 1016.11 1016.26 1016.45 1016.66 1016.84 1016.99
1010.52 1011.73 1012.71 1013.35 1013.60 1013.46 1013.03 1012.45 1011.87 1011.44 1011.28 1011.41 1011.81 1012.40 1013.06 1013.68 1014.17 1014.47 1014.59 1014.57 1014.47 1014.39 1014.37 1014.43 1014.58 1014.79 1015.01 1015.21 1015.35 1015.43 1015.48 1015.51 1015.55 1015.63 1015.73 1015.85 1015.96 1016.04 1016.10 1016.12 1016.13 1016.16 1016.22 1016.34 1016.51 1016.71 1016.91 1017.07 1017.19
1010.77 1011.75 1012.48 1012.89 1012.97 1012.75 1012.35 1011.89 1011.50 1011.31 1011.38 1011.71 1012.24 1012.89 1013.54 1014.09 1014.48 1014.67 1014.71 1014.64 1014.54 1014.48 1014.50 1014.62 1014.80 1015.02 1015.23 1015.40 1015.50 1015.55 1015.57 1015.59 1015.63 1015.72 1015.84 1015.98 1016.10 1016.20 1016.27 1016.30 1016.32 1016.35 1016.42 1016.54 1016.70 1016.89 1017.06 1017.19 1017.26
1010.76 1011.51 1012.02 1012.26 1012.24 1012.03 1011.72 1011.43 1011.28 1011.33 1011.62 1012.11 1012.73 1013.39 1013.99 1014.45 1014.73 1014.83 1014.80 1014.71 1014.63 1014.61 1014.67 1014.82 1015.03 1015.25 1015.43 1015.55 1015.60 1015.61 1015.60 1015.62 1015.67 1015.78 1015.94 1016.10 1016.26 1016.38 1016.45 1016.49 1016.50 1016.53 1016.59 1016.69 1016.82 1016.96 1017.09 1017.17 1017.19
1010.55 1011.11 1011.46 1011.60 1011.56 1011.41 1011.25 1011.17 1011.24 1011.51 1011.96 1012.56 1013.21 1013.84 1014.35 1014.70 1014.88 1014.91 1014.84 1014.75 1014.70 1014.72 1014.84 1015.02 1015.23 1015.43 1015.56 1015.63 1015.64 1015.60 1015.58 1015.59 1015.67 1015.82 1016.01 1016.22 1016.41 1016.55 1016.63 1016.66 1016.67 1016.67 1016.69 1016.75 1016.83 1016.93 1017.00 1017.04 1017.02
1010.27 1010.69 1010.94 1011.05 1011.05 1011.02 1011.03 1011.14 1011.40 1011.83 1012.38 1013.01 1013.63 1014.17 1014.58 1014.82 1014.90 1014.87 1014.80 1014.73 1014.73 1014.81 1014.97 1015.17 1015.38 1015.54 1015.63 1015.64 1015.60 1015.53 1015.49 1015.52 1015.63 1015.81 1016.05 1016.30 1016.52 1016.68 1016.77 1016.79 1016.77 1016.74 1016.72 1016.73 1016.76 1016.80 1016.83 1016.82 1016.78
1010.05 1010.39 1010.61 1010.73 1010.81 1010.91 1011.07 1011.35 1011.75 1012.26 1012.84 1013.43 1013.96 1014.38 1014.66 1014.79 1014.80 1014.74 1014.68 1014.65 1014.70 1014.84 1015.04 1015.26 1015.45 1015.57 1015.61 1015.57 1015.48 1015.40 1015.35 1015.40 1015.53 1015.76 1016.03 1016.32 1016.56 1016.73 1016.82 1016.83 1016.79 1016.73 1016.67 1016.64 1016.63 1016.63 1016.62 1016.59 1016.53
1010.01 1010.32 1010.54 1010.72 1010.88 1011.10 1011.38 1011.76 1012.23 1012.75 1013.29 1013.79 1014.20 1014.48 1014.63 1014.67 1014.62 1014.55 1014.51 1014.53 1014.64 1014.82 1015.04 1015.26 1015.43 1015.51 1015.51 1015.44 1015.32 1015.23 1015.19 1015.25 1015.41 1015.66 1015.96 1016.26 1016.51 1016.69 1016.77 1016.77 1016.71 1016.63 1016.55 1016.49 1016.46 1016.44 1016.42 1016.39 1016.34
1010.26 1010.57 1010.81 1011.03 1011.27 1011.56 1011.92 1012.34 1012.80 1013.28 1013.72 1014.09 1014.35 1014.50 1014.54 1014.50 1014.42 1014.35 1014.33 1014.40 1014.54 1014.74 1014.97 1015.18 1015.32 1015.38 1015.36 1015.26 1015.15 1015.05 1015.03 1015.10 1015.28 1015.53 1015.83 1016.13 1016.37 1016.54 1016.61 1016.60 1016.54 1016.45 1016.36 1016.30 1016.27 1016.26 1016.25 1016.24 1016.22
1010.80 1011.10 1011.36 1011.62 1011.90 1012.23 1012.61 1013.01 1013.42 1013.80 1014.12 1014.35 1014.47 1014.50 1014.44 1014.35 1014.24 1014.18 1014.18 1014.27 1014.42 1014.62 1014.84 1015.03 1015.15 1015.19 1015.16 1015.08 1014.99 1014.92 1014.92 1015.00 1015.18 1015.42 1015.69 1015.95 1016.17 1016.31 1016.36 1016.34 1016.28 1016.19 1016.12 1016.07 1016.06 1016.07 1016.10 1016.13 1016.15
1011.57 1011.86 1012.13 1012.40 1012.70 1013.04 1013.39 1013.74 1014.06 1014.32 1014.49 1014.58 1014.58 1014.50 1014.38 1014.24 1014.13 1014.07 1014.07 1014.15 1014.29 1014.46 1014.65 1014.81 1014.92 1014.96 1014.96 1014.92 1014.87 1014.86 1014.89 1014.99 1015.15 1015.36 1015.58 1015.78 1015.94 1016.03 1016.05 1016.01 1015.94 1015.87 1015.81 1015.79 1015.81 1015.86 1015.94 1016.03 1016.10
1012.43 1012.72 1012.99 1013.28 1013.58 1013.90 1014.20 1014.47 1014.68 1014.81 1014.85 1014.81 1014.70 1014.55 1014.37 1014.21 1014.08 1014.00 1013.99 1014.03 1014.13 1014.25 1014.39 1014.52 1014.63 1014.71 1014.76 1014.79 1014.83 1014.88 1014.96 1015.08 1015.22 1015.38 1015.53 1015.65 1015.73 1015.75 1015.72 1015.65 1015.57 1015.49 1015.44 1015.44 1015.49 1015.58 1015.71 1015.86 1016.01
1013.25 1013.55 1013.84 1014.15 1014.46 1014.76 1015.02 1015.20 1015.30 1015.30 1015.22 1015.06 1014.86 1014.64 1014.42 1014.23 1014.08 1013.97 1013.91 1013.90 1013.93 1013.99 1014.07 1014.18 1014.30 1014.43 1014.57 1014.71 1014.85 1015.00 1015.14 1015.29 1015.41 1015.51 1015.58 1015.60 1015.58 1015.52 1015.41 1015.29 1015.17 1015.07 1015.01 1015.01 1015.08 1015.20 1015.38 1015.59 1015.82
1013.87 1014.21 1014.57 1014.93 1015.29 1015.60 1015.82 1015.93 1015.93 1015.81 1015.60 1015.34 1015.05 1014.76 1014.50 1014.28 1014.09 1013.94 1013.83 1013.74 1013.69 1013.68 1013.71 1013.81 1013.96 1014.16 1014.40 1014.67 1014.94 1015.20 1015.42 1015.60 1015.71 1015.76 1015.74 1015.66 1015.53 1015.37 1015.17 1014.97 1014.79 1014.64 1014.55 1014.52 1014.58 1014.71 1014.93 1015.20 1015.50
1014.22 1014.65 1015.12 1015.60 1016.04 1016.40 1016.62 1016.68 1016.58 1016.35 1016.02 1015.64 1015.26 1014.91 1014.60 1014.33 1014.11 1013.91 1013.73 1013.57 1013.45 1013.37 1013.36 1013.45 1013.64 1013.92 1014.28 1014.68 1015.09 1015.46 1015.77 1015.99 1016.09 1016.10 1016.00 1015.83 1015.60 1015.32 1015.03 1014.74 1014.47 1014.25 1014.09 1014.01 1014.02 1014.15 1014.38 1014.70 1015.08
1014.26 1014.85 1015.50 1016.16 1016.74 1017.18 1017.42 1017.45 1017.28 1016.93 1016.48 1015.98 1015.50 1015.06 1014.69 1014.39 1014.12 1013.88 1013.65 1013.44 1013.26 1013.13 1013.10 1013.19 1013.42 1013.78 1014.25 1014.77 1015.30 1015.78 1016.17 1016.43 1016.54 1016.52 1016.36 1016.11 1015.78 1015.41 1015.02 1014.63 1014.26 1013.94 1013.69 1013.53 1013.49 1013.57 1013.80 1014.15 1014.59
1014.08 1014.88 1015.76 1016.64 1017.40 1017.96 1018.25 1018.27 1018.01 1017.55 1016.97 1016.35 1015.76 1015.24 1014.81 1014.46 1014.17 1013.91 1013.66 1013.42 1013.21 1013.07 1013.03 1013.13 1013.40 1013.82 1014.36 1014.97 1015.60 1016.16 1016.61 1016.91 1017.03 1016.99 1016.80 1016.49 1016.09 1015.64 1015.16 1014.68 1014.21 1013.79 1013.44 1013.18 1013.06 1013.09 1013.29 1013.64 1014.13
1013.78 1014.83 1015.98 1017.09 1018.05 1018.74 1019.10 1019.10 1018.77 1018.20 1017.49 1016.74 1016.04 1015.44 1014.97 1014.60 1014.31 1014.07 1013.83 1013.61 1013.41 1013.27 1013.24 1013.35 1013.64 1014.09 1014.67 1015.33 1016.00 1016.61 1017.09 1017.41 1017.54 1017.49 1017.28 1016.94 1016.51 1016.01 1015.47 1014.92 1014.37 1013.85 1013.40 1013.06 1012.85 1012.81 1012.96 1013.30 1013.81
1013.50 1014.80 1016.20 1017.55 1018.70 1019.51 1019.92 1019.90 1019.51 1018.83 1018.00 1017.14 1016.35 1015.70 1015.20 1014.85 1014.60 1014.41 1014.23 1014.06 1013.91 1013.81 1013.79 1013.92 1014.20 1014.65 1015.22 1015.87 1016.54 1017.14 1017.63 1017.94 1018.07 1018.03 1017.82 1017.48 1017.03 1016.52 1015.95 1015.35 1014.75 1014.17 1013.65 1013.22 1012.93 1012.82 1012.92 1013.23 1013.71
1013.34 1014.85 1016.46 1018.01 1019.30 1020.21 1020.65 1020.61 1020.16 1019.40 1018.47 1017.54 1016.69 1016.02 1015.54 1015.24 1015.07 1014.97 1014.90 1014.82 1014.74 1014.69 1014.71 1014.83 1015.10 1015.50 1016.03 1016.62 1017.23 1017.78 1018.23 1018.52 1018.64 1018.60 1018.40 1018.08 1017.65 1017.15 1016.59 1015.99 1015.37 1014.76 1014.20 1013.72 1013.37 1013.20 1013.24 1013.49 1013.92
1013.33 1014.99 1016.75 1018.42 1019.80 1020.76 1021.22 1021.16 1020.66 1019.85 1018.88 1017.91 1017.07 1016.42 1016.00 1015.79 1015.73 1015.76 1015.81 1015.85 1015.87 1015.89 1015.93 1016.05 1016.28 1016.62 1017.05 1017.55 1018.06 1018.53 1018.91 1019.15 1019.25 1019.21 1019.03 1018.74 1018.36 1017.90 1017.38 1016.82 1016.22 1015.62 1015.05 1014.56 1014.18 1013.97 1013.95 1014.13 1014.49
1013.46 1015.18 1017.00 1018.71 1020.12 1021.09 1021.53 1021.47 1020.96 1020.15 1019.19 1018.25 1017.46 1016.89 1016.57 1016.48 1016.55 1016.72 1016.91 1017.07 1017.19 1017.27 1017.35 1017.46 1017.63 1017.89 1018.23 1018.61 1019.01 1019.37 1019.66 1019.85 1019.92 1019.87 1019.71 1019.46 1019.13 1018.74 1018.29 1017.79 1017.25 1016.70 1016.17 1015.69 1015.32 1015.08 1015.02 1015.13 1015.40
1013.67 1015.36 1017.15 1018.81 1020.18 1021.12 1021.55 1021.50 1021.02 1020.26 1019.38 1018.54 1017.86 1017.42 1017.23 1017.27 1017.48 1017.78 1018.09 1018.36 1018.56 1018.71 1018.81 1018.91 1019.04 1019.22 1019.45 1019.73 1020.01 1020.27 1020.48 1020.61 1020.64 1020.58 1020.44 1020.24 1019.96 1019.64 1019.27 1018.85 1018.40 1017.93 1017.47 1017.05 1016.71 1016.48 1016.39 1016.44 1016.62
1013.86 1015.46 1017.12 1018.67 1019.95 1020.83 1021.26 1021.24 1020.84 1020.20 1019.47 1018.79 1018.28 1017.99 1017.95 1018.12 1018.45 1018.85 1019.25 1019.60 1019.86 1020.04 1020.15 1020.24 1020.34 1020.47 1020.63 1020.82 1021.01 1021.19 1021.33 1021.40 1021.41 1021.34 1021.22 1021.05 1020.83 1020.58 1020.29 1019.97 1019.61 1019.24 1018.87 1018.53 1018.25 1018.05 1017.95 1017.95 1018.05
1014.00 1015.42 1016.91 1018.30 1019.45 1020.27 1020.70 1020.75 1020.49 1020.02 1019.50 1019.03 1018.71 1018.59 1018.70 1018.98 1019.40 1019.86 1020.30 1020.68 1020.96 1021.16 1021.28 1021.37 1021.45 1021.54 1021.66 1021.81 1021.95 1022.08 1022.17 1022.22 1022.21 1022.14 1022.03 1021.88 1021.71 1021.52 1021.31 1021.07 1020.82 1020.55 1020.28 1020.03 1019.82 1019.66 1019.57 1019.55 1019.59
Thickness
5853 5854 5851 5837 5809 5783 5779 5791 5803 5803 5802 5809 5813 5807 5796 5788 5778 5766 5785 5793 5792 5791 5790 5790 5789 5789 5788 5788 5787 5787 5786 5785 5784 5782 5781 5779 5777 5776 5774 5772 5770 5768 5767 5765 5763 5762 5760 5758 5757
5855 5854 5843 5821 5787 5764 5774 5796 5800 5805 5809 5815 5813 5806 5797 5789 5793 5788 5789 5792 5792 5791 5790 5789 5789 5788 5788 5787 5787 5786 5785 5783 5782 5781 5779 5778 5776 5774 5772 5770 5769 5767 5765 5764 5762 5760 5758 5757 5756
5857 5852 5827 5803 5781 5772 5779 5800 5806 5813 5820 5818 5808 5806 5797 5790 5793 5792 5793 5794 5792 5791 5790 5789 5788 5788 5787 5787 5786 5785 5784 5782 5781 5779 5778 5776 5774 5772 5771 5769 5767 5766 5764 5763 5761 5759 5757 5756 5754
5851 5836 5819 5793 5783 5795 5802 5807 5813 5811 5814 5816 5809 5797 5798 5804 5802 5798 5797 5795 5792 5790 5790 5789 5788 5787 5787 5786 5785 5784 5782 5781 5780 5778 5777 5775 5773 5771 5769 5767 5766 5765 5763 5761 5760 5758 5756 5755 5753
5845 5820 5795 5781 5789 5805 5816 5820 5820 5811 5807 5807 5806 5791 5790 5803 5806 5801 5798 5795 5792 5790 5789 5788 5788 5787 5786 5786 5785 5783 5781 5780 5778 5777 5775 5774 5772 5770 5768 5766 5765 5763 5762 5760 5758 5757 5755 5754 5753
5826 5810 5782 5774 5791 5808 5816 5822 5818 5808 5804 5804 5801 5791 5787 5801 5800 5798 5798 5794 5793 5791 5789 5788 5787 5787 5786 5785 5784 5782 5781 5779 5777 5776 5774 5773 5771 5769 5767 5766 5764 5763 5761 5759 5758 5756 5755 5753 5752
5819 5801 5785 5787 5792 5800 5814 5824 5818 5810 5804 5805 5806 5790 5787 5795 5800 5799 5797 5794 5792 5790 5788 5787 5787 5786 5785 5784 5783 5781 5779 5778 5776 5775 5773 5771 5769 5768 5766 5764 5763 5762 5760 5758 5757 5756 5755 5753 5752
5831 5805 5791 5791 5794 5800 5821 5827 5825 5818 5810 5816 5813 5793 5786 5796 5802 5799 5795 5792 5790 5788 5787 5787 5786 5785 5784 5783 5782 5780 5778 5777 5775 5773 5772 5770 5768 5767 5765 5763 5762 5761 5759 5758 5757 5756 5754 5753 5752
5839 5797 5784 5795 5802 5808 5824 5823 5825 5829 5820 5817 5817 5810 5806 5806 5802 5794 5789 5787 5786 5786 5786 5786 5785 5784 5783 5782 5780 5779 5777 5775 5774 5773 5771 5769 5767 5765 5764 5762 5761 5760 5758 5757 5756 5755 5754 5753 5751
5823 5792 5800 5817 5822 5821 5826 5826 5825 5817 5809 5806 5807 5808 5809 5805 5799 5792 5787 5783 5783 5783 5785 5786 5785 5784 5782 5782 5779 5778 5776 5774 5773 5772 5770 5768 5766 5764 5763 5762 5761 5760 5758 5757 5756 5755 5754 5753 5751
5826 5810 5821 5829 5835 5834 5826 5827 5830 5813 5799 5805 5804 5803 5804 5801 5797 5794 5790 5789 5787 5786 5786 5786 5785 5784 5783 5782 5779 5777 5776 5774 5772 5771 5770 5767 5765 5763 5762 5761 5760 5759 5758 5756 5756 5755 5754 5753 5751
5828 5828 5834 5835 5840 5835 5829 5828 5823 5818 5814 5821 5819 5814 5807 5800 5796 5795 5793 5792 5791 5789 5788 5788 5787 5785 5783 5782 5780 5778 5776 5774 5773 5772 5770 5768 5765 5764 5762 5761 5759 5759 5758 5756 5755 5754 5753 5752 5751
5827 5830 5837 5840 5839 5838 5834 5827 5823 5819 5824 5822 5818 5812 5807 5802 5799 5798 5798 5796 5793 5790 5790 5790 5789 5786 5784 5782 5780 5778 5776 5775 5774 5773 5771 5769 5766 5764 5762 5761 5760 5759 5758 5756 5755 5754 5753 5752 5751
5830 5834 5835 5836 5835 5836 5828 5823 5821 5815 5823 5818 5812 5808 5807 5804 5800 5798 5797 5794 5793 5793 5792 5792 5790 5789 5786 5783 5781 5779 5778 5776 5775 5773 5772 5769 5767 5766 5763 5761 5760 5759 5758 5757 5756 5754 5753 5752 5750
5835 5824 5822 5828 5831 5831 5827 5808 5813 5820 5821 5813 5810 5808 5807 5806 5804 5801 5800 5798 5797 5795 5794 5792 5791 5790 5787 5785 5783 5781 5779 5777 5775 5773 5772 5770 5768 5766 5764 5762 5760 5759 5758 5757 5756 5754 5752 5751 5749
5821 5807 5798 5817 5827 5828 5815 5789 5811 5821 5817 5809 5809 5809 5807 5806 5806 5806 5805 5802 5800 5797 5795 5793 5793 5790 5788 5786 5784 5781 5779 5777 5775 5773 5771 5769 5766 5765 5764 5762 5760 5759 5758 5757 5755 5753 5750 5749 5747
5795 5786 5791 5806 5825 5824 5811 5794 5811 5820 5815 5809 5809 5809 5807 5805 5806 5807 5808 5805 5803 5799 5796 5793 5793 5790 5788 5786 5783 5781 5779 5777 5774 5772 5770 5768 5766 5764 5763 5761 5760 5759 5758 5756 5755 5752 5750 5747 5746
5778 5784 5790 5796 5817 5819 5805 5802 5812 5817 5815 5810 5809 5809 5808 5807 5808 5811 5809 5807 5804 5801 5798 5794 5792 5790 5787 5785 5782 5779 5777 5775 5774 5772 5770 5768 5765 5764 5763 5761 5760 5758 5757 5755 5754 5751 5750 5747 5746
5792 5788 5786 5800 5819 5811 5802 5802 5808 5813 5812 5810 5808 5807 5808 5810 5814 5814 5811 5809 5804 5800 5797 5794 5791 5789 5786 5782 5779 5775 5772 5773 5772 5771 5770 5768 5766 5764 5763 5761 5759 5757 5755 5754 5753 5751 5748 5745 5745
5791 5784 5786 5800 5817 5809 5799 5799 5808 5812 5813 5815 5813 5809 5809 5808 5808 5810 5809 5808 5804 5801 5798 5795 5792 5789 5787 5784 5781 5778 5775 5773 5772 5771 5769 5768 5767 5765 5763 5761 5758 5757 5754 5752 5751 5749 5746 5744 5744
5788 5785 5787 5791 5804 5807 5795 5785 5795 5807 5814 5816 5817 5815 5813 5811 5808 5808 5807 5806 5804 5800 5798 5797 5794 5791 5788 5786 5781 5777 5773 5771 5769 5768 5767 5767 5766 5764 5762 5760 5758 5756 5754 5751 5750 5749 5746 5741 5742
5778 5801 5801 5796 5782 5772 5784 5754 5779 5795 5801 5808 5812 5813 5812 5813 5811 5809 5808 5806 5805 5803 5802 5798 5795 5792 5789 5786 5781 5775 5770 5767 5768 5768 5767 5766 5765 5764 5762 5760 5758 5756 5754 5752 5750 5750 5747 5744 5739
5794 5807 5801 5795 5781 5768 5774 5758 5766 5788 5787 5799 5809 5813 5814 5816 5814 5812 5813 5810 5808 5806 5802 5798 5794 5791 5789 5787 5783 5777 5773 5770 5769 5768 5765 5764 5764 5763 5762 5760 5758 5756 5754 5753 5751 5750 5748 5745 5741
5808 5796 5787 5774 5761 5745 5764 5758 5757 5775 5788 5799 5808 5814 5815 5817 5817 5816 5816 5811 5807 5806 5803 5798 5794 5791 5790 5787 5783 5779 5774 5770 5767 5764 5762 5762 5762 5761 5761 5760 5758 5756 5755 5753 5751 5750 5748 5746 5743
5794 5760 5737 5735 5725 5735 5763 5759 5759 5790 5804 5808 5810 5814 5818 5820 5818 5815 5812 5810 5807 5805 5803 5799 5794 5791 5789 5786 5783 5780 5776 5772 5768 5765 5762 5760 5759 5758 5759 5759 5758 5756 5755 5753 5752 5750 5748 5746 5743
5780 5761 5732 5722 5722 5734 5755 5752 5771 5802 5812 5816 5817 5819 5820 5820 5819 5817 5815 5812 5809 5807 5803 5799 5795 5792 5790 5787 5783 5781 5777 5773 5770 5767 5764 5761 5760 5759 5759 5759 5758 5756 5754 5753 5751 5749 5747 5745 5743
5776 5762 5761 5740 5740 5732 5739 5758 5779 5802 5806 5810 5812 5813 5814 5815 5816 5816 5814 5812 5809 5807 5804 5801 5796 5793 5790 5787 5784 5780 5777 5774 5770 5768 5765 5763 5761 5760 5760 5758 5757 5755 5753 5752 5750 5747 5746 5744 5742
5788 5775 5749 5734 5720 5716 5731 5745 5753 5775 5786 5797 5802 5805 5809 5811 5811 5811 5810 5809 5809 5807 5804 5801 5797 5794 5791 5788 5784 5780 5776 5773 5771 5768 5765 5763 5761 5760 5759 5757 5755 5753 5752 5750 5748 5745 5744 5741 5740
5776 5768 5750 5731 5729 5716 5714 5733 5775 5777 5786 5790 5795 5800 5804 5808 5809 5807 5807 5806 5806 5805 5802 5798 5794 5790 5787 5784 5781 5777 5774 5771 5769 5767 5765 5763 5761 5759 5758 5755 5753 5751 5749 5747 5745 5743 5741 5739 5738
5779 5769 5750 5732 5727 5724 5719 5734 5785 5785 5789 5791 5793 5797 5800 5803 5804 5804 5804 5801 5799 5796 5796 5793 5790 5787 5784 5782 5779 5775 5771 5769 5767 5765 5763 5761 5759 5757 5755 5753 5751 5749 5747 5745 5742 5740 5739 5737 5735